Location: Alpha Ridge Park
(39.3209°N, 76.9128°W)
Time: 17:58:36
(UTC-04:00)

Vanguard 2 Rocket - Pass Details

Date: 26 May 2019
Orbit: 555 x 3326 km, 32.9° (Epoch: 25 June)

Event Time Altitude Azimuth Distance (km) Brightness Sun altitude
Rises 11:21:57 0° 278° (W) 6,058 10.8 61.5°
Reaches altitude 10° 11:27:00 10° 271° (W) 4,568 10.3 62.3°
Maximum altitude 11:36:54 34° 213° (SSW) 2,141 9.3 63.9°
Drops below altitude 10° 11:43:00 10° 150° (SSE) 2,779 9.9 64.8°
Sets 11:45:20 0° 140° (SE) 3,467 10.2 65.1°
